STARLINK-1942 (46794 NORAD) Tracking and Keplerian Element Data

This shows tracking and keplerian element data for the satellite.

Feedback or suggestion? Click here.




ElementValue
Catalog46794
NameSTARLINK-1942
Epoch Orbit528
Epoch Day331.16668981
Epoch Year2020
RAAN0.7863
Inclination53.0552
Eccentricity0.0001251
Argument of Perigee72.4703
Mean Anonmoly135.6178
Mean Motion15.62765228
Decay Rate0.00040656
L11 46794U 20074BH 20331.16668981 .00040656 00000-0 44742-3 0 9992
L22 46794 53.0552 0.7863 0001251 72.4703 135.6178 15.62765228 5288

Live tracking and technical data element details for STARLINK-1942 (NORAD 46794). STARLINK-1942 can be tracked NOW for your location showing map with azimuth and elevation plus other details from your city location.

Track the satellite on the map from your city or location and see movement details for azimuth, elevation, latitude, longitude, range, height, and movement on the map or in text.







IsCatalogInMostPopularTable: catalog: 46794, numindb: 6
Update: records affected: 1



GetName: 46794 STARLINK-1942

Hit Count: updated at: Thu, 26 Nov 2020 18:34:47 GMT